THY115 LTFJ-UBBB

Flight info

Callsign THY115
Flight time N/A
Altitude 35000
Route VICEN T380 ASMAP L333 EVLIG UL333 LATGA UT363 ESB UT364 ILHAN UW71 TBN UG261 NOLGA N61 LAGAS M747 LUSAL M11 ERLEV
Aircraft A320/M-SDE3FGHIRWY/LB1

Departure

Time N/A
Airport Istanbul Sabiha Gökçen International Airport (LTFJ)

Arrival

Time 2025-09-05 12:54
Airport Heydar Aliyev International Airport (UBBB)
Time Latitude Longitude Altitude Speed Heading
2025-09-05 12:04 41.27849 41.79746 35052 ft 512 kts 79°
2025-09-05 12:05 41.30283 41.98381 35066 ft 512 kts 79°
2025-09-05 12:06 41.38620 42.63805 35126 ft 513 kts 80°
2025-09-05 12:09 41.48771 43.48272 35145 ft 514 kts 81°
2025-09-05 12:10 41.56233 44.14260 35113 ft 514 kts 82°
2025-09-05 12:12 41.41368 44.86647 35041 ft 510 kts 111°
2025-09-05 12:14 41.22997 45.58237 34969 ft 514 kts 112°
2025-09-05 12:16 41.04016 46.29856 34972 ft 515 kts 113°
2025-09-05 12:18 40.84717 47.01165 34956 ft 516 kts 114°
2025-09-05 12:20 40.64809 47.72302 34948 ft 518 kts 114°
2025-09-05 12:22 40.63908 48.42502 27852 ft 532 kts 81°
2025-09-05 12:24 40.66540 48.65532 23595 ft 489 kts 81°
2025-09-05 12:24 40.67035 48.69924 22657 ft 481 kts 81°
2025-09-05 12:24 40.68002 48.78497 20832 ft 466 kts 81°
2025-09-05 12:25 40.68932 48.86792 19453 ft 448 kts 81°
2025-09-05 12:25 40.69809 48.94764 18425 ft 438 kts 81°
2025-09-05 12:26 40.70679 49.02642 17280 ft 430 kts 81°
2025-09-05 12:26 40.71528 49.10360 16161 ft 422 kts 81°
2025-09-05 12:27 40.72351 49.17965 15007 ft 416 kts 81°
2025-09-05 12:28 40.72894 49.29117 13721 ft 396 kts 92°
2025-09-05 12:28 40.72805 49.32733 13624 ft 395 kts 91°
2025-09-05 12:28 40.72650 49.39958 13444 ft 393 kts 91°
2025-09-05 12:29 40.72486 49.47155 13261 ft 392 kts 91°
2025-09-05 12:29 40.72313 49.54329 13049 ft 391 kts 92°
2025-09-05 12:30 40.72127 49.61416 12827 ft 388 kts 92°
2025-09-05 12:30 40.71859 49.68498 12594 ft 386 kts 100°
2025-09-05 12:31 40.69322 49.74521 12367 ft 379 kts 141°
2025-09-05 12:31 40.64621 49.77095 12117 ft 366 kts 180°
2025-09-05 12:32 40.57132 49.76013 11409 ft 358 kts 191°
2025-09-05 12:32 40.54703 49.75580 11113 ft 356 kts 191°
2025-09-05 12:33 40.49832 49.74723 10596 ft 344 kts 190°
2025-09-05 12:33 40.45268 49.73931 10361 ft 318 kts 191°
2025-09-05 12:34 40.41086 49.73208 9754 ft 292 kts 191°
2025-09-05 12:34 40.37047 49.72504 9499 ft 294 kts 190°
2025-09-05 12:35 40.33031 49.71804 9252 ft 292 kts 190°
2025-09-05 12:36 40.27010 49.70847 8884 ft 293 kts 181°
2025-09-05 12:36 40.25008 49.71484 8418 ft 301 kts 159°
2025-09-05 12:36 40.21069 49.73101 7779 ft 295 kts 169°
2025-09-05 12:37 40.17047 49.74169 7226 ft 289 kts 170°
2025-09-05 12:37 40.13366 49.75637 6977 ft 273 kts 147°
2025-09-05 12:38 40.10641 49.78884 6735 ft 258 kts 136°
2025-09-05 12:38 40.08148 49.82039 6475 ft 242 kts 135°
2025-09-05 12:39 40.05959 49.85241 6093 ft 234 kts 118°
2025-09-05 12:40 40.03828 49.90950 5727 ft 235 kts 115°
2025-09-05 12:40 40.02394 49.94786 5478 ft 234 kts 115°
2025-09-05 12:40 40.01762 49.96737 5356 ft 233 kts 104°
2025-09-05 12:41 40.01358 50.00897 5117 ft 231 kts 94°
2025-09-05 12:41 40.01018 50.05155 4887 ft 262 kts 95°
2025-09-05 12:42 40.00697 50.10004 4637 ft 269 kts 85°
2025-09-05 12:42 40.01487 50.14718 4388 ft 266 kts 75°
2025-09-05 12:43 40.02372 50.19387 4136 ft 263 kts 75°
2025-09-05 12:44 40.04426 50.25874 3768 ft 260 kts 56°
2025-09-05 12:44 40.05428 50.27815 3645 ft 257 kts 56°
2025-09-05 12:44 40.07596 50.31489 3410 ft 259 kts 34°
2025-09-05 12:45 40.11020 50.31545 3162 ft 266 kts 328°
2025-09-05 12:46 40.15063 50.26512 2793 ft 268 kts 317°
2025-09-05 12:46 40.16384 50.24791 2672 ft 268 kts 317°
2025-09-05 12:46 40.19006 50.21391 2429 ft 267 kts 317°
2025-09-05 12:47 40.21653 50.17972 2189 ft 268 kts 317°
2025-09-05 12:48 40.25457 50.13066 2002 ft 245 kts 318°
2025-09-05 12:48 40.26665 50.11506 2005 ft 243 kts 318°
2025-09-05 12:49 40.30249 50.07168 2001 ft 211 kts 336°
2025-09-05 12:49 40.31570 50.06586 2004 ft 198 kts 356°
2025-09-05 12:50 40.35381 50.06477 1909 ft 162 kts
2025-09-05 12:50 40.36454 50.06460 1773 ft 148 kts
2025-09-05 12:50 40.38463 50.06431 1403 ft 142 kts
2025-09-05 12:51 40.41393 50.06388 858 ft 139 kts
2025-09-05 12:51 40.42342 50.06374 689 ft 139 kts
2025-09-05 12:52 40.44305 50.06342 337 ft 142 kts
2025-09-05 12:53 40.47021 50.06306 12 ft 89 kts 359°
2025-09-05 12:53 40.47444 50.06293 11 ft 15 kts 341°
2025-09-05 12:53 40.47569 50.06147 13 ft 15 kts 303°
2025-09-05 12:54 40.47329 50.06089 14 ft 27 kts 177°
2025-09-05 12:54 40.47027 50.06091 14 ft 27 kts 179°
2025-09-05 12:55 40.46940 50.05790 15 ft 27 kts 268°
2025-09-05 12:55 40.46927 50.05331 15 ft 18 kts 269°
2025-09-05 12:56 40.46795 50.05246 15 ft 8 kts 178°
2025-09-05 12:56 40.46748 50.05249 15 ft 1 kts 178°